Year,Month,Day,Hour,Minute,Value (Times are PST for temperature in C)
2021,01,14,00,00,4.60
2021,01,14,00,01,4.60
2021,01,14,00,02,4.50
2021,01,14,00,03,4.50
2021,01,14,00,04,4.50
2021,01,14,00,05,4.40
2021,01,14,00,06,4.40
2021,01,14,00,07,4.40
2021,01,14,00,08,4.40
2021,01,14,00,09,4.40
2021,01,14,00,10,4.30
2021,01,14,00,11,4.30
2021,01,14,00,12,4.30
2021,01,14,00,13,4.30
2021,01,14,00,14,4.20
2021,01,14,00,15,4.20
2021,01,14,00,16,4.20
2021,01,14,00,17,4.20
2021,01,14,00,18,4.20
2021,01,14,00,19,4.10
2021,01,14,00,20,4.10
2021,01,14,00,21,4.10
2021,01,14,00,22,4.10
2021,01,14,00,23,4.10
2021,01,14,00,24,4.10
2021,01,14,00,25,4.10
2021,01,14,00,26,4.10
2021,01,14,00,27,4.00
2021,01,14,00,28,4.00
2021,01,14,00,29,4.00
2021,01,14,00,30,4.00
2021,01,14,00,31,4.00
2021,01,14,00,32,4.00
2021,01,14,00,33,4.00
2021,01,14,00,34,3.90
2021,01,14,00,35,3.90
2021,01,14,00,36,3.90
2021,01,14,00,37,3.90
2021,01,14,00,38,3.90
2021,01,14,00,39,3.80
2021,01,14,00,40,3.80
2021,01,14,00,41,3.80
2021,01,14,00,42,3.80
2021,01,14,00,43,3.80
2021,01,14,00,44,3.80
2021,01,14,00,45,3.80
2021,01,14,00,46,3.80
2021,01,14,00,47,3.80
2021,01,14,00,48,3.80
2021,01,14,00,49,3.80
2021,01,14,00,50,3.70
2021,01,14,00,51,3.70
2021,01,14,00,52,3.70
2021,01,14,00,53,3.70
2021,01,14,00,54,3.70
2021,01,14,00,55,3.70
2021,01,14,00,56,3.70
2021,01,14,00,57,3.70
2021,01,14,00,58,3.70
2021,01,14,00,59,3.70
2021,01,14,01,00,3.70
2021,01,14,01,01,3.70
2021,01,14,01,02,3.70
2021,01,14,01,03,3.70
2021,01,14,01,04,3.70
2021,01,14,01,05,3.60
2021,01,14,01,06,3.60
2021,01,14,01,07,3.50
2021,01,14,01,08,3.50
2021,01,14,01,09,3.50
2021,01,14,01,10,3.60
2021,01,14,01,11,3.60
2021,01,14,01,12,3.60
2021,01,14,01,13,3.70
2021,01,14,01,14,3.70
2021,01,14,01,15,3.70
2021,01,14,01,16,3.80
2021,01,14,01,17,3.80
2021,01,14,01,18,3.80
2021,01,14,01,19,3.80
2021,01,14,01,20,3.80
2021,01,14,01,21,3.90
2021,01,14,01,22,3.90
2021,01,14,01,23,3.90
2021,01,14,01,24,3.90
2021,01,14,01,25,3.90
2021,01,14,01,26,3.90
2021,01,14,01,27,4.00
2021,01,14,01,28,4.00
2021,01,14,01,29,4.00
2021,01,14,01,30,4.00
2021,01,14,01,31,4.00
2021,01,14,01,32,4.00
2021,01,14,01,33,4.00
2021,01,14,01,34,4.00
2021,01,14,01,35,4.00
2021,01,14,01,36,4.00
2021,01,14,01,37,4.10
2021,01,14,01,38,4.10
2021,01,14,01,39,4.10
2021,01,14,01,40,4.20
2021,01,14,01,41,4.20
2021,01,14,01,42,4.20
2021,01,14,01,43,4.20
2021,01,14,01,44,4.20
2021,01,14,01,45,4.20
2021,01,14,01,46,4.20
2021,01,14,01,47,4.10
2021,01,14,01,48,4.10
2021,01,14,01,49,4.10
2021,01,14,01,50,4.00
2021,01,14,01,51,4.00
2021,01,14,01,52,3.90
2021,01,14,01,53,3.90
2021,01,14,01,54,3.80
2021,01,14,01,55,3.80
2021,01,14,01,56,3.80
2021,01,14,01,57,3.80
2021,01,14,01,58,3.80
2021,01,14,01,59,3.80
2021,01,14,02,00,3.80
2021,01,14,02,01,3.80
2021,01,14,02,02,3.80
2021,01,14,02,03,3.80
2021,01,14,02,04,3.80
2021,01,14,02,05,3.80
2021,01,14,02,06,3.80
2021,01,14,02,07,3.80
2021,01,14,02,08,3.80
2021,01,14,02,09,3.80
2021,01,14,02,10,3.80
2021,01,14,02,11,3.80
2021,01,14,02,12,3.80
2021,01,14,02,13,3.80
2021,01,14,02,14,3.80
2021,01,14,02,15,3.80
2021,01,14,02,16,3.80
2021,01,14,02,17,3.80
2021,01,14,02,18,3.80
2021,01,14,02,19,3.80
2021,01,14,02,20,3.90
2021,01,14,02,21,3.90
2021,01,14,02,22,3.90
2021,01,14,02,23,3.90
2021,01,14,02,24,3.90
2021,01,14,02,25,3.90
2021,01,14,02,26,3.90
2021,01,14,02,27,3.90
2021,01,14,02,28,4.00
2021,01,14,02,29,4.00
2021,01,14,02,30,4.00
2021,01,14,02,31,4.00
2021,01,14,02,32,4.00
2021,01,14,02,33,4.10
2021,01,14,02,34,4.10
2021,01,14,02,35,4.10
2021,01,14,02,36,4.10
2021,01,14,02,37,4.10
2021,01,14,02,38,4.10
2021,01,14,02,39,4.10
2021,01,14,02,40,4.10
2021,01,14,02,41,4.10
2021,01,14,02,42,4.10
2021,01,14,02,43,4.00
2021,01,14,02,44,4.00
2021,01,14,02,45,4.00
2021,01,14,02,46,4.00
2021,01,14,02,47,4.00
2021,01,14,02,48,4.00
2021,01,14,02,49,4.00
2021,01,14,02,50,4.00
2021,01,14,02,51,4.00
2021,01,14,02,52,4.00
2021,01,14,02,53,4.00
2021,01,14,02,54,4.00
2021,01,14,02,55,3.90
2021,01,14,02,56,3.90
2021,01,14,02,57,3.90
2021,01,14,02,58,3.90
2021,01,14,02,59,4.00
2021,01,14,03,00,4.00
2021,01,14,03,01,4.00
2021,01,14,03,02,4.00
2021,01,14,03,03,4.00
2021,01,14,03,04,4.00
2021,01,14,03,05,4.00
2021,01,14,03,06,4.00
2021,01,14,03,07,4.10
2021,01,14,03,08,4.10
2021,01,14,03,09,4.20
2021,01,14,03,10,4.20
2021,01,14,03,11,4.20
2021,01,14,03,12,4.20
2021,01,14,03,13,4.20
2021,01,14,03,14,4.20
2021,01,14,03,15,4.20
2021,01,14,03,16,4.20
2021,01,14,03,17,4.30
2021,01,14,03,18,4.30
2021,01,14,03,19,4.30
2021,01,14,03,20,4.30
2021,01,14,03,21,4.30
2021,01,14,03,22,4.30
2021,01,14,03,23,4.30
2021,01,14,03,24,4.30
2021,01,14,03,25,4.30
2021,01,14,03,26,4.40
2021,01,14,03,27,4.40
2021,01,14,03,28,4.40
2021,01,14,03,29,4.40
2021,01,14,03,30,4.40
2021,01,14,03,31,4.40
2021,01,14,03,32,4.40
2021,01,14,03,33,4.40
2021,01,14,03,34,4.40
2021,01,14,03,35,4.40
2021,01,14,03,36,4.40
2021,01,14,03,37,4.40
2021,01,14,03,38,4.40
2021,01,14,03,39,4.40
2021,01,14,03,40,4.40
2021,01,14,03,41,4.40
2021,01,14,03,42,4.40
2021,01,14,03,43,4.40
2021,01,14,03,44,4.40
2021,01,14,03,45,4.50
2021,01,14,03,46,4.50
2021,01,14,03,47,4.50
2021,01,14,03,48,4.50
2021,01,14,03,49,4.50
2021,01,14,03,50,4.50
2021,01,14,03,51,4.50
2021,01,14,03,52,4.50
2021,01,14,03,53,4.50
2021,01,14,03,54,4.50
2021,01,14,03,55,4.50
2021,01,14,03,56,4.50
2021,01,14,03,57,4.50
2021,01,14,03,58,4.50
2021,01,14,03,59,4.50
2021,01,14,04,00,4.50
2021,01,14,04,01,4.50
2021,01,14,04,02,4.50
2021,01,14,04,03,4.50
2021,01,14,04,04,4.50
2021,01,14,04,05,4.50
2021,01,14,04,06,4.60
2021,01,14,04,07,4.60
2021,01,14,04,08,4.60
2021,01,14,04,09,4.60
2021,01,14,04,10,4.60
2021,01,14,04,11,4.60
2021,01,14,04,12,4.60
2021,01,14,04,13,4.60
2021,01,14,04,14,4.60
2021,01,14,04,15,4.60
2021,01,14,04,16,4.60
2021,01,14,04,17,4.60
2021,01,14,04,18,4.60
2021,01,14,04,19,4.60
2021,01,14,04,20,4.60
2021,01,14,04,21,4.60
2021,01,14,04,22,4.60
2021,01,14,04,23,4.60
2021,01,14,04,24,4.60
2021,01,14,04,25,4.60
2021,01,14,04,26,4.60
2021,01,14,04,27,4.60
2021,01,14,04,28,4.70
2021,01,14,04,29,4.70
2021,01,14,04,30,4.70
2021,01,14,04,31,4.70
2021,01,14,04,32,4.80
2021,01,14,04,33,4.80
2021,01,14,04,34,4.80
2021,01,14,04,35,4.80
2021,01,14,04,36,4.80
2021,01,14,04,37,4.90
2021,01,14,04,38,4.90
2021,01,14,04,39,4.90
2021,01,14,04,40,4.90
2021,01,14,04,41,4.90
2021,01,14,04,42,4.90
2021,01,14,04,43,4.90
2021,01,14,04,44,4.90
2021,01,14,04,45,4.90
2021,01,14,04,46,4.90
2021,01,14,04,47,4.90
2021,01,14,04,48,4.90
2021,01,14,04,49,4.90
2021,01,14,04,50,4.90
2021,01,14,04,51,5.00
2021,01,14,04,52,5.10
2021,01,14,04,53,5.10
2021,01,14,04,54,5.10
2021,01,14,04,55,5.10
2021,01,14,04,56,5.10
2021,01,14,04,57,5.10
2021,01,14,04,58,5.10
2021,01,14,04,59,5.10
2021,01,14,05,00,5.10
2021,01,14,05,01,5.10
2021,01,14,05,02,5.10
2021,01,14,05,03,5.10
2021,01,14,05,04,5.10
2021,01,14,05,05,5.10
2021,01,14,05,06,5.20
2021,01,14,05,07,5.20
2021,01,14,05,08,5.20
2021,01,14,05,09,5.20
2021,01,14,05,10,5.20
2021,01,14,05,11,5.30
2021,01,14,05,12,5.30
2021,01,14,05,13,5.30
2021,01,14,05,14,5.30
2021,01,14,05,15,5.30
2021,01,14,05,16,5.30
2021,01,14,05,17,5.30
2021,01,14,05,18,5.30
2021,01,14,05,19,5.30
2021,01,14,05,20,5.30
2021,01,14,05,21,5.30
2021,01,14,05,22,5.30
2021,01,14,05,23,5.30
2021,01,14,05,24,5.30
2021,01,14,05,25,5.30
2021,01,14,05,26,5.30
2021,01,14,05,27,5.30
2021,01,14,05,28,5.30
2021,01,14,05,29,5.30
2021,01,14,05,30,5.30
2021,01,14,05,31,5.30
2021,01,14,05,32,5.40
2021,01,14,05,33,5.40
2021,01,14,05,34,5.40
2021,01,14,05,35,5.40
2021,01,14,05,36,5.40
2021,01,14,05,37,5.40
2021,01,14,05,38,5.40
2021,01,14,05,39,5.40
2021,01,14,05,40,5.40
2021,01,14,05,41,5.40
2021,01,14,05,42,5.40
2021,01,14,05,43,5.30
2021,01,14,05,44,5.30
2021,01,14,05,45,5.30
2021,01,14,05,46,5.30
2021,01,14,05,47,5.30
2021,01,14,05,48,5.30
2021,01,14,05,49,5.30
2021,01,14,05,50,5.30
2021,01,14,05,51,5.30
2021,01,14,05,52,5.30
2021,01,14,05,53,5.30
2021,01,14,05,54,5.30
2021,01,14,05,55,5.30
2021,01,14,05,56,5.30
2021,01,14,05,57,5.30
2021,01,14,05,58,5.30
2021,01,14,05,59,5.30
2021,01,14,06,00,5.30
2021,01,14,06,01,5.30
2021,01,14,06,02,5.20
2021,01,14,06,03,5.20
2021,01,14,06,04,5.20
2021,01,14,06,05,5.20
2021,01,14,06,06,5.20
2021,01,14,06,07,5.20
2021,01,14,06,08,5.20
2021,01,14,06,09,5.20
2021,01,14,06,10,5.20
2021,01,14,06,11,5.10
2021,01,14,06,12,5.10
2021,01,14,06,13,5.10
2021,01,14,06,14,5.10
2021,01,14,06,15,5.10
2021,01,14,06,16,5.10
2021,01,14,06,17,5.10
2021,01,14,06,18,5.10
2021,01,14,06,19,5.10
2021,01,14,06,20,5.10
2021,01,14,06,21,5.10
2021,01,14,06,22,5.10
2021,01,14,06,23,5.10
2021,01,14,06,24,5.10
2021,01,14,06,25,5.10
2021,01,14,06,26,5.10
2021,01,14,06,27,5.10
2021,01,14,06,28,5.10
2021,01,14,06,29,5.10
2021,01,14,06,30,5.10
2021,01,14,06,31,5.10
2021,01,14,06,32,5.10
2021,01,14,06,33,5.10
2021,01,14,06,34,5.10
2021,01,14,06,35,5.10
2021,01,14,06,36,5.10
2021,01,14,06,37,5.10
2021,01,14,06,38,5.10
2021,01,14,06,39,5.10
2021,01,14,06,40,5.10
2021,01,14,06,41,5.10
2021,01,14,06,42,5.10
2021,01,14,06,43,5.10
2021,01,14,06,44,5.10
2021,01,14,06,45,5.10
2021,01,14,06,46,5.10
2021,01,14,06,47,5.10
2021,01,14,06,48,5.10
2021,01,14,06,49,5.10
2021,01,14,06,50,5.10
2021,01,14,06,51,5.10
2021,01,14,06,52,5.10
2021,01,14,06,53,5.10
2021,01,14,06,54,5.10
2021,01,14,06,55,5.10
2021,01,14,06,56,5.10
2021,01,14,06,57,5.10
2021,01,14,06,58,5.10
2021,01,14,06,59,5.10
2021,01,14,07,00,5.10
2021,01,14,07,01,5.00
2021,01,14,07,02,4.90
2021,01,14,07,03,4.90
2021,01,14,07,04,4.90
2021,01,14,07,05,4.90
2021,01,14,07,06,4.90
2021,01,14,07,07,4.90
2021,01,14,07,08,4.90
2021,01,14,07,09,4.90
2021,01,14,07,10,4.90
2021,01,14,07,11,4.90
2021,01,14,07,12,4.90
2021,01,14,07,13,4.90
2021,01,14,07,14,4.90
2021,01,14,07,15,4.90
2021,01,14,07,16,4.90
2021,01,14,07,17,4.90
2021,01,14,07,18,4.90
2021,01,14,07,19,4.90
2021,01,14,07,20,4.90
2021,01,14,07,21,4.90
2021,01,14,07,22,5.00
2021,01,14,07,23,5.10
2021,01,14,07,24,5.10
2021,01,14,07,25,5.10
2021,01,14,07,26,5.10
2021,01,14,07,27,5.10
2021,01,14,07,28,5.10
2021,01,14,07,29,5.10
2021,01,14,07,30,5.10
2021,01,14,07,31,5.10
2021,01,14,07,32,5.10
2021,01,14,07,33,5.10
2021,01,14,07,34,5.10
2021,01,14,07,35,5.10
2021,01,14,07,36,5.10
2021,01,14,07,37,5.10
2021,01,14,07,38,5.10
2021,01,14,07,39,5.10
2021,01,14,07,40,5.10
2021,01,14,07,41,5.10
2021,01,14,07,42,5.10
2021,01,14,07,43,5.10
2021,01,14,07,44,5.10
2021,01,14,07,45,5.10
2021,01,14,07,46,5.10
2021,01,14,07,47,5.10
2021,01,14,07,48,5.10
2021,01,14,07,49,5.10
2021,01,14,07,50,5.10
2021,01,14,07,51,5.10
2021,01,14,07,52,5.10
2021,01,14,07,53,5.10
2021,01,14,07,54,5.10
2021,01,14,07,55,5.10
2021,01,14,07,56,5.10
2021,01,14,07,57,5.10
2021,01,14,07,58,5.10
2021,01,14,07,59,5.10
2021,01,14,08,00,5.10
2021,01,14,08,01,5.10
2021,01,14,08,02,5.10
2021,01,14,08,03,5.10
2021,01,14,08,04,5.10
2021,01,14,08,05,5.10
2021,01,14,08,06,5.10
2021,01,14,08,07,5.10
2021,01,14,08,08,5.10
2021,01,14,08,09,5.10
2021,01,14,08,10,5.20
2021,01,14,08,11,5.20
2021,01,14,08,12,5.20
2021,01,14,08,13,5.20
2021,01,14,08,14,5.20
2021,01,14,08,15,5.20
2021,01,14,08,16,5.30
2021,01,14,08,17,5.30
2021,01,14,08,18,5.30
2021,01,14,08,19,5.30
2021,01,14,08,20,5.30
2021,01,14,08,21,5.30
2021,01,14,08,22,5.30
2021,01,14,08,23,5.30
2021,01,14,08,24,5.30
2021,01,14,08,25,5.30
2021,01,14,08,26,5.30
2021,01,14,08,27,5.30
2021,01,14,08,28,5.30
2021,01,14,08,29,5.30
2021,01,14,08,30,5.30
2021,01,14,08,31,5.30
2021,01,14,08,32,5.30
2021,01,14,08,33,5.30
2021,01,14,08,34,5.30
2021,01,14,08,35,5.40
2021,01,14,08,36,5.40
2021,01,14,08,37,5.40
2021,01,14,08,38,5.40
2021,01,14,08,39,5.40
2021,01,14,08,40,5.40
2021,01,14,08,41,5.40
2021,01,14,08,42,5.40
2021,01,14,08,43,5.40
2021,01,14,08,44,5.40
2021,01,14,08,45,5.50
2021,01,14,08,46,5.50
2021,01,14,08,47,5.50
2021,01,14,08,48,5.50
2021,01,14,08,49,5.50
2021,01,14,08,50,5.50
2021,01,14,08,51,5.50
2021,01,14,08,52,5.50
2021,01,14,08,53,5.50
2021,01,14,08,54,5.50
2021,01,14,08,55,5.50
2021,01,14,08,56,5.60
2021,01,14,08,57,5.60
2021,01,14,08,58,5.60
2021,01,14,08,59,5.60
2021,01,14,09,00,5.60
2021,01,14,09,01,5.60
2021,01,14,09,02,5.70
2021,01,14,09,03,5.70
2021,01,14,09,04,5.70
2021,01,14,09,05,5.70
2021,01,14,09,06,5.70
2021,01,14,09,07,5.70
2021,01,14,09,08,5.70
2021,01,14,09,09,5.70
2021,01,14,09,10,5.70
2021,01,14,09,11,5.70
2021,01,14,09,12,5.70
2021,01,14,09,13,5.70
2021,01,14,09,14,5.70
2021,01,14,09,15,5.70
2021,01,14,09,16,5.70
2021,01,14,09,17,5.80
2021,01,14,09,18,5.80
2021,01,14,09,19,5.80
2021,01,14,09,20,5.80
2021,01,14,09,21,5.80
2021,01,14,09,22,5.80
2021,01,14,09,23,5.90
2021,01,14,09,24,5.90
2021,01,14,09,25,5.90
2021,01,14,09,26,5.90
2021,01,14,09,27,5.90
2021,01,14,09,28,5.90
2021,01,14,09,29,5.90
2021,01,14,09,30,6.00
2021,01,14,09,31,6.00
2021,01,14,09,32,6.00
2021,01,14,09,33,6.00
2021,01,14,09,34,6.00
2021,01,14,09,35,6.00
2021,01,14,09,36,6.00
2021,01,14,09,37,6.00
2021,01,14,09,38,6.10
2021,01,14,09,39,6.10
2021,01,14,09,40,6.10
2021,01,14,09,41,6.10
2021,01,14,09,42,6.10
2021,01,14,09,43,6.20
2021,01,14,09,44,6.20
2021,01,14,09,45,6.20
2021,01,14,09,46,6.20
2021,01,14,09,47,6.20
2021,01,14,09,48,6.20
2021,01,14,09,49,6.20
2021,01,14,09,50,6.20
2021,01,14,09,51,6.30
2021,01,14,09,52,6.30
2021,01,14,09,53,6.30
2021,01,14,09,54,6.30
2021,01,14,09,55,6.30
2021,01,14,09,56,6.30
2021,01,14,09,57,6.40
2021,01,14,09,58,6.40
2021,01,14,09,59,6.40
2021,01,14,10,00,6.40
2021,01,14,10,01,6.40
2021,01,14,10,02,6.40
2021,01,14,10,03,6.40
2021,01,14,10,04,6.50
2021,01,14,10,05,6.60
2021,01,14,10,06,6.60
2021,01,14,10,07,6.60
2021,01,14,10,08,6.60
2021,01,14,10,09,6.60
2021,01,14,10,10,6.60
2021,01,14,10,11,6.60
2021,01,14,10,12,6.70
2021,01,14,10,13,6.70
2021,01,14,10,14,6.70
2021,01,14,10,15,6.70
2021,01,14,10,16,6.80
2021,01,14,10,17,6.80
2021,01,14,10,18,6.80
2021,01,14,10,19,6.80
2021,01,14,10,20,6.80
2021,01,14,10,21,6.80
2021,01,14,10,22,6.80
2021,01,14,10,23,6.80
2021,01,14,10,24,6.80
2021,01,14,10,25,6.80
2021,01,14,10,26,6.80
2021,01,14,10,27,6.80
2021,01,14,10,28,6.90
2021,01,14,10,29,6.90
2021,01,14,10,30,6.90
2021,01,14,10,31,7.00
2021,01,14,10,32,7.00
2021,01,14,10,33,7.00
2021,01,14,10,34,7.00
2021,01,14,10,35,7.00
2021,01,14,10,36,7.00
2021,01,14,10,37,7.00
2021,01,14,10,38,7.00
2021,01,14,10,39,7.00
2021,01,14,10,40,7.00
2021,01,14,10,41,7.00
2021,01,14,10,42,7.00
2021,01,14,10,43,7.00
2021,01,14,10,44,7.10
2021,01,14,10,45,7.10
2021,01,14,10,46,7.10
2021,01,14,10,47,7.10
2021,01,14,10,48,7.10
2021,01,14,10,49,7.10
2021,01,14,10,50,7.10
2021,01,14,10,51,7.10
2021,01,14,10,52,7.10
2021,01,14,10,53,7.10
2021,01,14,10,54,7.10
2021,01,14,10,55,7.10
2021,01,14,10,56,7.10
2021,01,14,10,57,7.20
2021,01,14,10,58,7.20
2021,01,14,10,59,7.20
2021,01,14,11,00,7.20
2021,01,14,11,01,7.30
2021,01,14,11,02,7.30
2021,01,14,11,03,7.30
2021,01,14,11,04,7.30
2021,01,14,11,05,7.30
2021,01,14,11,06,7.30
2021,01,14,11,07,7.30
2021,01,14,11,08,7.30
2021,01,14,11,09,7.30
2021,01,14,11,10,7.40
2021,01,14,11,11,7.40
2021,01,14,11,12,7.40
2021,01,14,11,13,7.50
2021,01,14,11,14,7.50
2021,01,14,11,15,7.50
2021,01,14,11,16,7.60
2021,01,14,11,17,7.60
2021,01,14,11,18,7.60
2021,01,14,11,19,7.70
2021,01,14,11,20,7.80
2021,01,14,11,21,7.80
2021,01,14,11,22,7.80
2021,01,14,11,23,7.80
2021,01,14,11,24,7.80
2021,01,14,11,25,7.80
2021,01,14,11,26,7.90
2021,01,14,11,27,7.90
2021,01,14,11,28,7.90
2021,01,14,11,29,7.90
2021,01,14,11,30,7.90
2021,01,14,11,31,7.90
2021,01,14,11,32,7.90
2021,01,14,11,33,7.90
2021,01,14,11,34,8.00
2021,01,14,11,35,8.00
2021,01,14,11,36,8.00
2021,01,14,11,37,8.00
2021,01,14,11,38,8.00
2021,01,14,11,39,8.10
2021,01,14,11,40,8.00
2021,01,14,11,41,8.00
2021,01,14,11,42,8.00
2021,01,14,11,43,8.00
2021,01,14,11,44,8.00
2021,01,14,11,45,8.00
2021,01,14,11,46,8.00
2021,01,14,11,47,7.90
2021,01,14,11,48,7.90
2021,01,14,11,49,7.90
2021,01,14,11,50,7.90
2021,01,14,11,51,7.90
2021,01,14,11,52,7.90
2021,01,14,11,53,7.90
2021,01,14,11,54,8.00
2021,01,14,11,55,7.90
2021,01,14,11,56,7.90
2021,01,14,11,57,7.90
2021,01,14,11,58,7.90
2021,01,14,11,59,7.80
2021,01,14,12,00,7.80
2021,01,14,12,01,7.80
2021,01,14,12,02,7.80
2021,01,14,12,03,7.80
2021,01,14,12,04,7.80
2021,01,14,12,05,7.80
2021,01,14,12,06,7.80
2021,01,14,12,07,7.80
2021,01,14,12,08,7.80
2021,01,14,12,09,7.80
2021,01,14,12,10,7.80
2021,01,14,12,11,7.80
2021,01,14,12,12,7.80
2021,01,14,12,13,7.80
2021,01,14,12,14,7.80
2021,01,14,12,15,7.80
2021,01,14,12,16,7.80
2021,01,14,12,17,7.80
2021,01,14,12,18,7.80
2021,01,14,12,19,7.80
2021,01,14,12,20,7.80
2021,01,14,12,21,7.70
2021,01,14,12,22,7.70
2021,01,14,12,23,7.70
2021,01,14,12,24,7.70
2021,01,14,12,25,7.70
2021,01,14,12,26,7.70
2021,01,14,12,27,7.70
2021,01,14,12,28,7.70
2021,01,14,12,29,7.70
2021,01,14,12,30,7.70
2021,01,14,12,31,7.80
2021,01,14,12,32,7.80
2021,01,14,12,33,7.80
2021,01,14,12,34,7.80
2021,01,14,12,35,7.80
2021,01,14,12,36,7.80
2021,01,14,12,37,7.80
2021,01,14,12,38,7.90
2021,01,14,12,39,7.90
2021,01,14,12,40,7.90
2021,01,14,12,41,8.00
2021,01,14,12,42,8.00
2021,01,14,12,43,8.00
2021,01,14,12,44,8.00
2021,01,14,12,45,8.00
2021,01,14,12,46,8.00
2021,01,14,12,47,8.00
2021,01,14,12,48,8.10
2021,01,14,12,49,8.00
2021,01,14,12,50,8.00
2021,01,14,12,51,8.00
2021,01,14,12,52,8.00
2021,01,14,12,53,8.00
2021,01,14,12,54,8.00
2021,01,14,12,55,8.00
2021,01,14,12,56,8.00
2021,01,14,12,57,8.00
2021,01,14,12,58,7.90
2021,01,14,12,59,8.00
2021,01,14,13,00,7.90
2021,01,14,13,01,7.90
2021,01,14,13,02,7.90
2021,01,14,13,03,7.90
2021,01,14,13,04,7.90
2021,01,14,13,05,7.90
2021,01,14,13,06,8.00
2021,01,14,13,07,8.00
2021,01,14,13,08,7.90
2021,01,14,13,09,7.90
2021,01,14,13,10,7.90
2021,01,14,13,11,7.90
2021,01,14,13,12,7.90
2021,01,14,13,13,7.90
2021,01,14,13,14,8.00
2021,01,14,13,15,8.00
2021,01,14,13,16,8.00
2021,01,14,13,17,8.00
2021,01,14,13,18,8.00
2021,01,14,13,19,8.00
2021,01,14,13,20,8.00
2021,01,14,13,21,8.00
2021,01,14,13,22,8.10
2021,01,14,13,23,8.10
2021,01,14,13,24,8.10
2021,01,14,13,25,8.10
2021,01,14,13,26,8.10
2021,01,14,13,27,8.10
2021,01,14,13,28,8.20
2021,01,14,13,29,8.20
2021,01,14,13,30,8.20
2021,01,14,13,31,8.20
2021,01,14,13,32,8.20
2021,01,14,13,33,8.20
2021,01,14,13,34,8.20
2021,01,14,13,35,8.20
2021,01,14,13,36,8.20
2021,01,14,13,37,8.20
2021,01,14,13,38,8.20
2021,01,14,13,39,8.20
2021,01,14,13,40,8.20
2021,01,14,13,41,8.20
2021,01,14,13,42,8.30
2021,01,14,13,43,8.30
2021,01,14,13,44,8.30
2021,01,14,13,45,8.30
2021,01,14,13,46,8.30
2021,01,14,13,47,8.30
2021,01,14,13,48,8.20
2021,01,14,13,49,8.30
2021,01,14,13,50,8.30
2021,01,14,13,51,8.30
2021,01,14,13,52,8.30
2021,01,14,13,53,8.30
2021,01,14,13,54,8.30
2021,01,14,13,55,8.30
2021,01,14,13,56,8.30
2021,01,14,13,57,8.30
2021,01,14,13,58,8.30
2021,01,14,13,59,8.30
2021,01,14,14,00,8.30
2021,01,14,14,01,8.40
2021,01,14,14,02,8.40
2021,01,14,14,03,8.40
2021,01,14,14,04,8.40
2021,01,14,14,05,8.40
2021,01,14,14,06,8.50
2021,01,14,14,07,8.50
2021,01,14,14,08,8.50
2021,01,14,14,09,8.50
2021,01,14,14,10,8.50
2021,01,14,14,11,8.60
2021,01,14,14,12,8.60
2021,01,14,14,13,8.60
2021,01,14,14,14,8.70
2021,01,14,14,15,8.70
2021,01,14,14,16,8.70
2021,01,14,14,17,8.60
2021,01,14,14,18,8.60
2021,01,14,14,19,8.60
2021,01,14,14,20,8.60
2021,01,14,14,21,8.70
2021,01,14,14,22,8.70
2021,01,14,14,23,8.70
2021,01,14,14,24,8.70
2021,01,14,14,25,8.70
2021,01,14,14,26,8.70
2021,01,14,14,27,8.60
2021,01,14,14,28,8.60
2021,01,14,14,29,8.60
2021,01,14,14,30,8.60
2021,01,14,14,31,8.60
2021,01,14,14,32,8.60
2021,01,14,14,33,8.60
2021,01,14,14,34,8.60
2021,01,14,14,35,8.60
2021,01,14,14,36,8.60
2021,01,14,14,37,8.60
2021,01,14,14,38,8.60
2021,01,14,14,39,8.60
2021,01,14,14,40,8.60
2021,01,14,14,41,8.60
2021,01,14,14,42,8.60
2021,01,14,14,43,8.60
2021,01,14,14,44,8.60
2021,01,14,14,45,8.60
2021,01,14,14,46,8.60
2021,01,14,14,47,8.60
2021,01,14,14,48,8.60
2021,01,14,14,49,8.60
2021,01,14,14,50,8.60
2021,01,14,14,51,8.60
2021,01,14,14,52,8.60
2021,01,14,14,53,8.60
2021,01,14,14,54,8.60
2021,01,14,14,55,8.60
2021,01,14,14,56,8.60
2021,01,14,14,57,8.60
2021,01,14,14,58,8.60
2021,01,14,14,59,8.60
2021,01,14,15,00,8.60
2021,01,14,15,01,8.70
2021,01,14,15,02,8.70
2021,01,14,15,03,8.70
2021,01,14,15,04,8.70
2021,01,14,15,05,8.70
2021,01,14,15,06,8.80
2021,01,14,15,07,8.80
2021,01,14,15,08,8.90
2021,01,14,15,09,8.90
2021,01,14,15,10,8.90
2021,01,14,15,11,8.90
2021,01,14,15,12,8.90
2021,01,14,15,13,8.80
2021,01,14,15,14,8.80
2021,01,14,15,15,8.80
2021,01,14,15,16,8.80
2021,01,14,15,17,8.80
2021,01,14,15,18,8.70
2021,01,14,15,19,8.70
2021,01,14,15,20,8.70
2021,01,14,15,21,8.70
2021,01,14,15,22,8.70
2021,01,14,15,23,8.70
2021,01,14,15,24,8.80
2021,01,14,15,25,8.80
2021,01,14,15,26,8.80
2021,01,14,15,27,8.80
2021,01,14,15,28,8.80
2021,01,14,15,29,8.90
2021,01,14,15,30,8.90
2021,01,14,15,31,8.90
2021,01,14,15,32,8.90
2021,01,14,15,33,8.90
2021,01,14,15,34,9.00
2021,01,14,15,35,9.00
2021,01,14,15,36,9.00
2021,01,14,15,37,9.00
2021,01,14,15,38,9.00
2021,01,14,15,39,9.00
2021,01,14,15,40,9.00
2021,01,14,15,41,9.00
2021,01,14,15,42,9.00
2021,01,14,15,43,9.00
2021,01,14,15,44,9.00
2021,01,14,15,45,8.90
2021,01,14,15,46,8.90
2021,01,14,15,47,8.90
2021,01,14,15,48,8.90
2021,01,14,15,49,8.80
2021,01,14,15,50,8.80
2021,01,14,15,51,8.80
2021,01,14,15,52,8.70
2021,01,14,15,53,8.70
2021,01,14,15,54,8.70
2021,01,14,15,55,8.70
2021,01,14,15,56,8.70
2021,01,14,15,57,8.70
2021,01,14,15,58,8.70
2021,01,14,15,59,8.60
2021,01,14,16,00,8.60
2021,01,14,16,01,8.60
2021,01,14,16,02,8.60
2021,01,14,16,03,8.60
2021,01,14,16,04,8.50
2021,01,14,16,05,8.50
2021,01,14,16,06,8.50
2021,01,14,16,07,8.40
2021,01,14,16,08,8.40
2021,01,14,16,09,8.40
2021,01,14,16,10,8.40
2021,01,14,16,11,8.40
2021,01,14,16,12,8.30
2021,01,14,16,13,8.30
2021,01,14,16,14,8.30
2021,01,14,16,15,8.30
2021,01,14,16,16,8.20
2021,01,14,16,17,8.20
2021,01,14,16,18,8.20
2021,01,14,16,19,8.20
2021,01,14,16,20,8.20
2021,01,14,16,21,8.20
2021,01,14,16,22,8.20
2021,01,14,16,23,8.20
2021,01,14,16,24,8.10
2021,01,14,16,25,8.10
2021,01,14,16,26,8.10
2021,01,14,16,27,8.10
2021,01,14,16,28,8.00
2021,01,14,16,29,8.00
2021,01,14,16,30,8.00
2021,01,14,16,31,7.90
2021,01,14,16,32,7.90
2021,01,14,16,33,7.90
2021,01,14,16,34,7.90
2021,01,14,16,35,7.80
2021,01,14,16,36,7.80
2021,01,14,16,37,7.80
2021,01,14,16,38,7.80
2021,01,14,16,39,7.80
2021,01,14,16,40,7.80
2021,01,14,16,41,7.80
2021,01,14,16,42,7.70
2021,01,14,16,43,7.70
2021,01,14,16,44,7.70
2021,01,14,16,45,7.70
2021,01,14,16,46,7.70
2021,01,14,16,47,7.60
2021,01,14,16,48,7.60
2021,01,14,16,49,7.60
2021,01,14,16,50,7.60
2021,01,14,16,51,7.60
2021,01,14,16,52,7.60
2021,01,14,16,53,7.50
2021,01,14,16,54,7.50
2021,01,14,16,55,7.50
2021,01,14,16,56,7.50
2021,01,14,16,57,7.50
2021,01,14,16,58,7.40
2021,01,14,16,59,7.40
2021,01,14,17,00,7.40
2021,01,14,17,01,7.40
2021,01,14,17,02,7.40
2021,01,14,17,03,7.30
2021,01,14,17,04,7.30
2021,01,14,17,05,7.30
2021,01,14,17,06,7.30
2021,01,14,17,07,7.30
2021,01,14,17,08,7.30
2021,01,14,17,09,7.30
2021,01,14,17,10,7.20
2021,01,14,17,11,7.20
2021,01,14,17,12,7.20
2021,01,14,17,13,7.20
2021,01,14,17,14,7.10
2021,01,14,17,15,7.10
2021,01,14,17,16,7.10
2021,01,14,17,17,7.10
2021,01,14,17,18,7.10
2021,01,14,17,19,7.10
2021,01,14,17,20,7.00
2021,01,14,17,21,7.00
2021,01,14,17,22,7.00
2021,01,14,17,23,7.00
2021,01,14,17,24,7.00
2021,01,14,17,25,6.90
2021,01,14,17,26,6.90
2021,01,14,17,27,6.90
2021,01,14,17,28,6.90
2021,01,14,17,29,6.90
2021,01,14,17,30,6.90
2021,01,14,17,31,6.90
2021,01,14,17,32,6.90
2021,01,14,17,33,6.90
2021,01,14,17,34,6.90
2021,01,14,17,35,6.90
2021,01,14,17,36,6.90
2021,01,14,17,37,6.90
2021,01,14,17,38,6.90
2021,01,14,17,39,6.90
2021,01,14,17,40,6.90
2021,01,14,17,41,6.90
2021,01,14,17,42,6.90
2021,01,14,17,43,6.80
2021,01,14,17,44,6.80
2021,01,14,17,45,6.80
2021,01,14,17,46,6.80
2021,01,14,17,47,6.80
2021,01,14,17,48,6.80
2021,01,14,17,49,6.80
2021,01,14,17,50,6.80
2021,01,14,17,51,6.80
2021,01,14,17,52,6.80
2021,01,14,17,53,6.80
2021,01,14,17,54,6.80
2021,01,14,17,55,6.80
2021,01,14,17,56,6.80
2021,01,14,17,57,6.80
2021,01,14,17,58,6.80
2021,01,14,17,59,6.70
2021,01,14,18,00,6.70
2021,01,14,18,01,6.70
2021,01,14,18,02,6.70
2021,01,14,18,03,6.70
2021,01,14,18,04,6.70
2021,01,14,18,05,6.70
2021,01,14,18,06,6.70